Weather Roundup
Issued by NWS

Home | Current Version | Previous Version | Text Only | Print | Product List | Glossary On
Versions: 1 2 3 4 5 6 7 8 9 10 11 12 13 14 15 16 17 18 19 20 21 22 23 24 25 26 27 28 29 30 31 32 33 34 35 36 37 38 39 40 41 42 43 44 45 46 47 48 49 50
085
NZUS93 KARX 250410
HRRWXR

CURRENT HOURLY OBSERVATIONS ACROSS
MUCH OF THE UPPER MISSISSIPPI VALLEY
NATIONAL WEATHER SERVICE LA CROSSE WI
1100 PM CDT SUN JUL 24 2016


...SOUTHEAST MINNESOTA...


CITY           SKY/WX    TMP DP  RH WIND       PRES   REMARKS
ROCHESTER      PTCLDY    67  64  90 W8        30.01R
ROCHESTER/MAYO FAIR      71  64  81 W8        30.00R
WINONA         CLOUDY    72  64  78 NW5       29.97R
AUSTIN         PTCLDY    70  63  78 W6        30.02R
ALBERT LEA     CLEAR     68  66  94 CALM      30.02S
DODGE CENTER   PTCLDY    64  61  88 W7        30.01R
PRESTON        CLOUDY    68  63  85 W7        30.01R
OWATONNA       CLEAR     66  63  88 SW6       30.01R
FARIBAULT      CLEAR     68  64  88 SW3       30.00R
$$

...ELSEWHERE IN MINNESOTA...


CITY           SKY/WX    TMP DP  RH WIND       PRES   REMARKS
MINNEAPOLIS    CLEAR     75  63  66 W8        29.97R
INTNL FALLS    CLEAR     64  58  80 W6        29.89R
DULUTH         PTCLDY    69  61  75 W9        29.90R
RED WING       CLEAR     70  64  83 CALM      29.95S
REDWOOD FALLS  CLEAR     69  62  78 W7        30.02R
MANKATO        CLEAR     68  61  77 W7        30.01R
WORTHINGTON    CLEAR     66  62  87 SW6       30.09R
FAIRMONT       CLEAR     70  63  78 W7        30.03R
$$

...SOUTHWEST WISCONSIN...


CITY           SKY/WX    TMP DP  RH WIND       PRES   REMARKS
LA CROSSE      CLEAR     75  65  70 NW9       29.94R
PRAIRIE DU CHI CLEAR     71  64  78 CALM      29.96R
BOSCOBEL       CLEAR     70  68  93 CALM      29.95R
LONE ROCK      CLEAR     72  68  87 W7        29.94R
PLATTEVILLE    CLOUDY    70  70  98 W5        29.96S
FORT MC COY    CLEAR     69  65  89 W3        29.95R
CAMP DOUGLAS   CLEAR     66  63  91 W5        29.93R
MAUSTON-NEW LI CLEAR     70  66  86 W3        29.93R
VIROQUA        FAIR      68  66  91 W5        29.97R
WIS DELLS      CLOUDY    70  64  80 CALM      29.93R
$$

...ELSEWHERE IN WISCONSIN...


CITY           SKY/WX    TMP DP  RH WIND       PRES   REMARKS
MILWAUKEE      CLOUDY    83  69  62 W6        29.87R
MADISON        CLOUDY    76  66  71 NW6       29.91R
GREEN BAY      CLOUDY    72  69  90 W8        29.85R
EAU CLAIRE     CLEAR     70  64  81 SW7       29.94R
BLACK RVR FLS  FAIR      65  65 100 CALM      29.94R
MEDFORD        CLEAR     66  64  92 W3        29.94R
WAUSAU         CLEAR     71  61  70 W9        29.90R
WIS RAPIDS     CLEAR     70  62  76 W5        29.94R
MARSHFIELD     CLEAR     69  62  78 W6        29.93R
RICE LAKE      CLEAR     67  61  79 W3        29.96R
$$

...NORTHEAST IOWA...


CITY           SKY/WX    TMP DP  RH WIND       PRES   REMARKS
WATERLOO       CLOUDY    70  65  84 NW5       29.98R
DUBUQUE        PTCLDY    72  66  81 NW10      29.96S
DECORAH        CLOUDY    70  66  88 VRB5      29.98R
MASON CITY     PTCLDY    67  63  87 W7        30.05R
CHARLES CITY   CLOUDY    68  68 100 W6        30.02R
OELWEIN        PTCLDY    68  64  88 NW7       30.00R
$$

...ELSEWHERE IN IOWA...


CITY           SKY/WX    TMP DP  RH WIND       PRES   REMARKS
DES MOINES     CLOUDY    77  66  68 N7        30.01R
IOWA CITY      CLOUDY    76  66  71 NW13      29.97R
FORT DODGE     CLOUDY    70  64  83 CALM      30.06R
MARSHALLTOWN   CLEAR     68  67  96 NW6       30.00R
CEDAR RAPIDS   CLOUDY    70  68  93 NW6       29.96S
$$

...NORTHERN ILLINOIS...


CITY           SKY/WX    TMP DP  RH WIND       PRES   REMARKS
CHICAGO-OHARE  CLOUDY    78  71  79 SW7       29.89S
CHICAGO-MIDWAY CLOUDY    77  68  73 SW14      29.90R
MOLINE         CLOUDY    78  68  71 NW6       29.93R
ROCKFORD       CLOUDY    78  69  73 NW6       29.92R
PEORIA         CLOUDY    80  76  87 S6        29.93S THUNDER
$$

NOTE: "FAIR" INDICATES FEW OR NO CLOUDS BELOW 12,000 FEET WITH NO
SIGNIFICANT WEATHER AND/OR OBSTRUCTIONS TO VISIBILITY. WIND
SPEEDS ARE IN MILES-PER-HOUR.




USA.gov is the U.S. government's official web portal to all federal, state and local government web resources and services.